Wendell Depot, MA (01380)

1:40 PM EDT on April 01, 2015 (GMT -0400)
North main St | | Change Station
CLOSE
Current Station
Personal Weather Station
Location: New Salem, MA
Elevation: 863 ft
Nearby Weather Stations

Elev 863 ft 42.53 °N, 72.34 °W | Updated 11 seconds ago

Clear
Clear
44.2 °F
Feels Like 40 °F
N
7.6
Wind Variable Wind from WNW
Gusts 15.2 mph

Today
High -- | Low -- °F
--% Chance of Precip.
Yesterday
High -- | Low -- °F
Precip. -- in
6:32 AM 7:15 PM
Waxing Gibbous, 93% visible
Pressure 30.02 in
Visibility 10.0 miles
Clouds Clear
Windchill 40 °F
Dew Point 8 °F
Humidity 22%
Rainfall 0.00 in
Snow Depth Not available.
UV 8 out of 12
Pollen 5.50 out of 12
Air Quality Not available.
Flu Activity Not available.
METAR KORE 011652Z AUTO 31018G22KT 10SM CLR 04/M13 A3000 RMK AO2 SLP165 T00391133

More Conditions Fewer Conditions

Pressure 30.02 in
Visibility 10.0 miles
Clouds Clear
Windchill 40 °F
Dew Point 8 °F
Humidity 22%
Rainfall 0.00 in
Snow Depth Not available.
UV 8 out of 12
Pollen 5.50 out of 12
Air Quality Not available.
Flu Activity Not available.
METAR KORE 011652Z AUTO 31018G22KT 10SM CLR 04/M13 A3000 RMK AO2 SLP165 T00391133

More Conditions Fewer Conditions

10-Day Weather Forecast

Almanac

Astronomy

Apr. 01, 2015 Rise Set
Actual Time
Civil Twilight
Nautical Twilight
Astronomical Twilight
Moon
Length of Visible Light
Length of Day
Tomorrow will be .
, % of the Moon is Illuminated

Today's Extremes

State Highs State Lows

Community

WunderPhotos

Upload Photos

1,810,018 photos uploaded!

WunderBlogs® & News

Nearby

Air Quality

  Air Quality AQ Index Pollutant
Not available.

Snow Depth

Station Depth Elevation

Earthquake Activity

City Distance Mag. Time & Date
Minimum magnitude displayed is 2.5.

Coastal Water Temperatures

Place Temperature

Stations

Nearby Weather Stations

Station Location Temp. Windchill Dew Point Humidity Wind Precip. Elev Updated Type